Weather History for KDUJ - November, 2014

Change the Weather History Date:

Thursday, November 20, 2014

  Actual Average Record
Temperature  
Mean Temperature 25 °F 38 °F  
Max Temperature 32 °F 45 °F 68 °F (1991)
Min Temperature 17 °F 30 °F 13 °F (1966)
Degree Days  
Heating Degree Days 40 27  
Month to date heating degree days 572 478  
Since 1 July heating degree days 1225 1221  
Cooling Degree Days 0 0  
Month to date cooling degree days 0 0  
Year to date cooling degree days 412 362  
Moisture  
Dew Point 16 °F    
Average Humidity 70    
Maximum Humidity 85    
Minimum Humidity 55    
Precipitation  
Precipitation T in 0.12 in - ()
Month to date precipitation 1.29 2.43  
Sea Level Pressure  
Sea Level Pressure 29.90 in    
Wind  
Wind Speed 18 mph (WSW)    
Max Wind Speed 30 mph    
Max Gust Speed 40 mph    
Visibility 6 miles    
Events Snow    
T = Trace of Precipitation, MM = Missing Value Source: NWS Daily Summary

Daily Weather History Graph

Daily Weather History Graph

Search for Another Location

Airport or City:

Trip Planner

Search our weather history database for the weather conditions in past years. The results will help you decide how hot, cold, wet, or windy it might be!

Date:

Astronomy

Nov. 20, 2014 Rise Set
Actual Time 7:09 AM EST 4:52 PM EST
Civil Twilight 6:39 AM EST 5:22 PM EST
Nautical Twilight 6:05 AM EST 5:56 PM EST
Astronomical Twilight 5:32 AM EST 6:29 PM EST
Moon 5:01 AM EST (11/20) 3:56 PM EST (11/20)
Length of Visible Light 10h 43m
Length of Day
9h 43m
Waning Crescent, 4% of the Moon is Illuminated
Nov 20
Waning Crescent
Nov 22
New
Nov 29
First Quarter
Dec 6
Full
Dec 14
Last Quarter

Hourly Weather History & Observations

Time (EST) Temp. Windchill Dew Point Humidity Pressure Visibility Wind Dir Wind Speed Gust Speed Precip Events Conditions
12:06 AM 32.0 °F 18.6 °F 24.1 °F 73% 29.80 in 1.8 mi WSW 25.3 mph 33.4 mph 0.00 in Snow Light Snow
12:10 AM 30.9 °F 17.8 °F 26.1 °F 82% 29.80 in 0.8 mi WSW 23.0 mph 33.4 mph 0.00 in Snow Light Snow
12:16 AM 30.0 °F 17.5 °F 26.1 °F 85% 29.80 in 1.0 mi WSW 19.6 mph 32.2 mph 0.00 in Snow Light Snow
12:21 AM 30.0 °F 18.7 °F 27.0 °F 88% 29.80 in 3.0 mi WSW 16.1 mph - 0.00 in Snow Light Snow
12:44 AM 30.0 °F 18.7 °F 27.0 °F 88% 29.80 in 1.8 mi WSW 16.1 mph 21.9 mph 0.00 in Snow Light Snow
12:53 AM 30.0 °F 18.7 °F 27.0 °F 88% 29.86 in 2.0 mi WSW 16.1 mph 24.2 mph 0.00 in Snow Light Snow
1:05 AM 30.0 °F 19.5 °F 26.1 °F 85% 29.80 in 4.0 mi WSW 13.8 mph 25.3 mph 0.00 in Snow Light Snow
1:18 AM 30.0 °F 19.1 °F 26.1 °F 85% 29.80 in 2.0 mi WSW 15.0 mph 25.3 mph 0.00 in Snow Light Snow
1:23 AM 30.0 °F 18.7 °F 27.0 °F 88% 29.80 in 1.8 mi WSW 16.1 mph 24.2 mph 0.00 in Snow Light Snow
1:34 AM 30.0 °F 17.9 °F 26.1 °F 85% 29.80 in 2.0 mi West 18.4 mph 31.1 mph 0.00 in Snow Light Snow
1:47 AM 30.2 °F 18.9 °F 26.6 °F 86% 29.80 in 3.0 mi West 16.1 mph 26.5 mph 0.00 in Snow Light Snow
1:53 AM 30.0 °F 17.5 °F 26.1 °F 85% 29.87 in 3.0 mi West 19.6 mph 26.5 mph 0.00 in Snow Light Snow
2:53 AM 27.0 °F 12.8 °F 19.9 °F 75% 29.89 in 4.0 mi West 21.9 mph 33.4 mph 0.00 in Snow Light Snow
3:13 AM 27.0 °F 13.5 °F 19.9 °F 75% 29.82 in 4.0 mi West 19.6 mph - 0.00 in Snow Light Snow
3:24 AM 27.0 °F 13.5 °F 19.9 °F 75% 29.82 in 3.0 mi West 19.6 mph 25.3 mph 0.00 in Snow Light Snow
3:31 AM 27.0 °F 14.7 °F 19.9 °F 75% 29.82 in 3.0 mi West 16.1 mph 23.0 mph 0.00 in Snow Light Snow
3:49 AM 26.6 °F 14.3 °F 19.4 °F 74% 29.82 in 6.0 mi WSW 16.1 mph - 0.00 in   Haze
3:53 AM 27.0 °F 15.2 °F 19.0 °F 72% 29.89 in 8.0 mi West 15.0 mph 24.2 mph 0.00 in   Overcast
4:14 AM 26.1 °F 11.6 °F 16.0 °F 66% 29.83 in 10.0 mi WSW 21.9 mph 31.1 mph N/A   Overcast
4:53 AM 26.1 °F 12.7 °F 16.0 °F 66% 29.89 in 10.0 mi WSW 18.4 mph 27.6 mph N/A   Overcast
5:51 AM 26.6 °F 14.7 °F 17.6 °F 69% 29.83 in 8.0 mi West 15.0 mph 24.2 mph N/A   Overcast
5:53 AM 26.1 °F 12.7 °F 17.1 °F 69% 29.89 in 7.0 mi West 18.4 mph 24.2 mph N/A   Overcast
6:53 AM 24.1 °F 11.0 °F 16.0 °F 71% 29.91 in 9.0 mi West 16.1 mph 26.5 mph N/A   Overcast
7:53 AM 23.0 °F 8.7 °F 14.0 °F 68% 29.93 in 7.0 mi West 18.4 mph 25.3 mph 0.00 in   Overcast
8:17 AM 21.9 °F 7.3 °F 12.0 °F 66% 29.87 in 10.0 mi WSW 18.4 mph 40.3 mph N/A   Overcast
8:24 AM 23.0 °F 8.0 °F 12.9 °F 65% 29.87 in 6.0 mi West 20.7 mph 29.9 mph 0.00 in Snow Light Snow
8:35 AM 21.9 °F 6.5 °F 12.9 °F 68% 29.88 in 2.0 mi West 20.7 mph 33.4 mph 0.00 in Snow Light Snow
8:39 AM 21.9 °F 6.2 °F 12.9 °F 68% 29.88 in 3.0 mi WSW 21.9 mph 33.4 mph 0.00 in Snow Light Snow
8:41 AM 21.9 °F 5.5 °F 12.9 °F 68% 29.88 in 2.5 mi WSW 24.2 mph 33.4 mph 0.00 in Snow Light Snow
8:53 AM 21.0 °F 5.7 °F 12.9 °F 71% 29.96 in 1.5 mi West 19.6 mph 33.4 mph 0.00 in Snow Light Snow
8:58 AM 21.0 °F 6.2 °F 12.0 °F 68% 29.89 in 3.0 mi West 18.4 mph 28.8 mph 0.00 in Snow Light Snow
9:10 AM 21.9 °F 6.2 °F 10.0 °F 60% 29.90 in 10.0 mi WSW 21.9 mph 32.2 mph 0.00 in   Overcast
9:53 AM 23.0 °F 7.2 °F 9.0 °F 55% 29.96 in 10.0 mi WSW 23.0 mph 31.1 mph 0.00 in   Scattered Clouds
10:53 AM 24.1 °F 10.6 °F 10.0 °F 55% 29.96 in 10.0 mi West 17.3 mph 26.5 mph N/A   Overcast
11:53 AM 23.0 °F 8.0 °F 9.0 °F 55% 29.95 in 10.0 mi West 20.7 mph 27.6 mph N/A   Mostly Cloudy
12:53 PM 23.0 °F 8.0 °F 8.1 °F 53% 29.94 in 10.0 mi West 20.7 mph 27.6 mph N/A   Partly Cloudy
1:53 PM 24.1 °F 9.0 °F 10.0 °F 55% 29.94 in 10.0 mi WSW 21.9 mph 29.9 mph N/A   Overcast
2:53 PM 21.9 °F 8.2 °F 9.0 °F 58% 29.96 in 10.0 mi WSW 16.1 mph 32.2 mph N/A   Overcast
3:53 PM 21.9 °F 9.2 °F 10.0 °F 60% 29.98 in 10.0 mi West 13.8 mph - N/A   Overcast
4:53 PM 21.0 °F 6.2 °F 9.0 °F 60% 29.99 in 10.0 mi WSW 18.4 mph - N/A   Mostly Cloudy
5:53 PM 21.9 °F 8.2 °F 9.0 °F 58% 30.00 in 10.0 mi WSW 16.1 mph 21.9 mph N/A   Overcast
6:53 PM 21.9 °F 8.2 °F 9.0 °F 58% 30.03 in 10.0 mi WSW 16.1 mph 25.3 mph N/A   Overcast
7:53 PM 21.0 °F 6.2 °F 10.0 °F 63% 30.04 in 10.0 mi West 18.4 mph 26.5 mph N/A   Overcast
8:31 PM 19.9 °F 5.7 °F 10.9 °F 68% 29.97 in 4.0 mi WSW 16.1 mph 24.2 mph 0.00 in Snow Light Snow
8:53 PM 19.9 °F 5.7 °F 14.0 °F 78% 30.05 in 2.5 mi WSW 16.1 mph - 0.00 in Snow Light Snow
9:08 PM 19.0 °F 5.6 °F 14.0 °F 81% 29.97 in 6.0 mi WSW 13.8 mph - 0.00 in   Haze
9:18 PM 19.0 °F 5.0 °F 14.0 °F 81% 29.98 in 10.0 mi WSW 15.0 mph 23.0 mph 0.00 in   Scattered Clouds
9:53 PM 19.0 °F 5.0 °F 12.9 °F 77% 30.06 in 10.0 mi WSW 15.0 mph - 0.00 in   Partly Cloudy
10:53 PM 18.0 °F 4.2 °F 12.0 °F 78% 30.08 in 10.0 mi WSW 13.8 mph - N/A   Clear
11:53 PM 19.0 °F 6.1 °F 10.9 °F 71% 30.09 in 10.0 mi WSW 12.7 mph - N/A   Overcast